Location: Platte
(43.3870°N, 98.8440°W)
Time: 02:29:03
(UTC-05:00)

Landsat 7 - Visible Passes

Search period start: 23 August 2014 00:00
Search period end: 02 September 2014 00:00
Orbit: 702 x 703 km, 98.2° (Epoch: 22 August)

Date Brightness Start Highest point End Pass type
(mag) Time Alt. Az. Time Alt. Az. Time Alt. Az.
23 Aug 4.5 22:33:11 36° E 22:33:32 37° ENE 22:37:53 10° N visible
24 Aug 5.7 00:12:04 24° W 00:12:04 24° W 00:15:15 10° NW visible
24 Aug 5.9 21:37:39 11° ENE 21:39:07 12° ENE 21:40:57 10° NE visible
24 Aug 3.9 23:16:33 75° NNW 23:16:33 75° NNW 23:20:56 10° NNW visible
25 Aug 4.9 22:21:01 28° ENE 22:21:23 28° ENE 22:25:27 10° N visible
25 Aug 5.4 23:59:55 30° WNW 23:59:55 30° WNW 00:03:19 10° NNW visible
26 Aug 3.9 23:04:23 66° NNE 23:04:23 66° NNE 23:08:41 10° N visible
27 Aug 6.5 00:43:17 12° WNW 00:43:17 12° WNW 00:44:14 10° WNW visible
27 Aug 5.2 22:08:52 22° ENE 22:09:17 22° ENE 22:12:56 10° NNE visible
27 Aug 5.1 23:47:45 37° WNW 23:47:45 37° WNW 23:51:17 10° NNW visible
28 Aug 4.2 22:52:14 52° NE 22:52:14 52° NE 22:56:23 10° N visible
29 Aug 6.3 00:31:08 15° WNW 00:31:08 15° WNW 00:32:52 10° NW visible
29 Aug 5.5 21:56:43 17° ENE 21:57:11 18° ENE 22:00:18 10° NNE visible
29 Aug 4.8 23:35:36 45° NW 23:35:36 45° NW 23:39:10 10° NNW visible
30 Aug 4.5 22:40:05 40° NE 22:40:05 40° NE 22:44:02 10° N visible
31 Aug 6.1 00:18:59 19° WNW 00:18:59 19° WNW 00:21:09 10° NW visible
31 Aug 5.7 21:44:34 14° ENE 21:45:07 14° ENE 21:47:28 10° NNE visible
31 Aug 4.6 23:23:27 49° NNW 23:23:27 49° NNW 23:27:00 10° NNW visible
01 Sep 4.9 22:27:56 31° NE 22:27:56 31° NE 22:31:38 10° N visible
